Terminal Aerodrome Forecast
Issued by NWS

Home | Current Version | Previous Version | Text Only | Print | Product List | Glossary On
Versions: 1 2 3 4 5 6 7 8 9 10 11 12
000
FTUS45 KRIW 280500
TAFJAC
TAF
KJAC 280520Z 2806/2906 36006KT P6SM SKC
     FM281300 18009KT P6SM FEW110
     FM281700 22020G28KT P6SM FEW080 SCT120
     FM290100 21011KT P6SM FEW120
     FM290500 36006KT P6SM SKC
      AMD LTD TO CLD VIS AND WIND=

USA.gov is the U.S. government's official web portal to all federal, state and local government web resources and services.